This is the latest recevied weather packets stored in our database for station/object WD8INF-9. If no packets are shown the sender has not sent any weather packets the latest 10 day(s).
| Time | Temp. | Humidity | Pressure | Rain* | Wind** | Luminosity | Snow |
|---|---|---|---|---|---|---|---|
| 1777693020 | 6.11° C | - | 1016.2 hPa | 0 mm | - | - | - |
| 1777692719 | 6.11° C | - | 1016.4 hPa | 0 mm | - | - | - |
| 1777692419 | 6.11° C | - | 1016.4 hPa | 0 mm | - | - | - |
| 1777692119 | 6.11° C | - | 1016.3 hPa | 0 mm | - | - | - |
| 1777691819 | 6.67° C | - | 1016.3 hPa | 0 mm | - | - | - |
| 1777691519 | 6.67° C | - | 1016.1 hPa | 0 mm | - | - | - |
| 1777691218 | 6.67° C | - | 1016 hPa | 0 mm | - | - | - |
| 1777690918 | 7.22° C | - | 1016.2 hPa | 0 mm | - | - | - |
| 1777690632 | 7.22° C | - | 1016.3 hPa | 0 mm | - | - | - |
| 1777690318 | 7.22° C | - | 1016.1 hPa | 0 mm | - | - | - |
| 1777690017 | 7.22° C | - | 1016.2 hPa | 0 mm | - | - | - |
| 1777689717 | 7.78° C | - | 1016.3 hPa | 0 mm | - | - | - |
| 1777689417 | 7.78° C | - | 1016.2 hPa | 0 mm | - | - | - |
| 1777689117 | 7.78° C | - | 1016.1 hPa | 0 mm | - | - | - |
| 1777688817 | 7.78° C | - | 1015.9 hPa | 0 mm | - | - | - |
| 1777688516 | 7.78° C | - | 1016 hPa | 0 mm | - | - | - |
| 1777688215 | 7.78° C | - | 1016 hPa | 0 mm | - | - | - |
| 1777687914 | 7.78° C | - | 1016 hPa | 0 mm | - | - | - |
| 1777687614 | 7.78° C | - | 1015.8 hPa | 0 mm | - | - | - |
| 1777687314 | 7.22° C | - | 1015.7 hPa | 0 mm | - | - | - |
| 1777687014 | 7.22° C | - | 1015.4 hPa | 0 mm | - | - | - |
| 1777686714 | 7.22° C | - | 1015.4 hPa | 0 mm | - | - | - |
| 1777686413 | 7.22° C | - | 1015.4 hPa | 0 mm | - | - | - |
| 1777686113 | 6.67° C | - | 1015.4 hPa | 0 mm | - | - | - |
| 1777685813 | 6.67° C | - | 1015.4 hPa | 0 mm | - | - | - |
* Rain since midnight (hover to see other rain measurements)
** Current wind speed in m/s (hover to see current wind gust speed)